Probability
0 0 0 1 1 0 0 0 0 0 1 0 0 0 0 0 0 0 0 0 0 0 0 0 2 4 4 3 2 1 2 3 4 3 1 0 0 0 0 0 0 0 0 0
0 0 1 2 2 1 0 0 0 0 1 0 0 0 1 1 0 0 0 0 0 0 0 1 2 3 3 2 1 1 1 2 2 2 0 0 0 0 0 0 0 0 0 0
0 0 1 2 2 1 0 0 0 0 0 0 1 2 3 2 0 0 0 0 0 0 0 1 2 3 2 1 1 1 1 1 1 0 0 0 0 0 0 0 0 0 0 0
0 0 1 2 2 1 1 0 0 1 1 2 3 4 4 2 0 0 0 0 0 0 0 1 2 3 2 1 0 1 1 1 0 0 0 0 0 0 0 0 0 0 0 0
0 0 0 1 2 2 1 0 1 2 3 4 4 4 4 2 1 0 0 0 0 0 0 0 1 1 1 1 0 0 0 0 0 0 0 0 0 0 0 0 0 0 0 1
0 0 0 0 1 1 1 0 2 4 4 4 3 3 3 3 2 1 0 0 0 0 0 0 1 1 0 0 0 0 0 0 0 0 0 0 0 0 0 0 0 0 0 1
0 0 0 0 1 1 0 1 3 5 5 4 3 3 3 4 3 2 1 0 0 0 0 0 0 0 0 0 0 0 0 0 0 0 0 0 0 0 0 0 0 0 0 1
0 0 0 0 1 2 2 3 5 6 5 5 5 4 3 3 4 3 2 0 0 0 0 0 0 0 0 0 0 0 0 0 0 0 0 1 1 0 1 1 1 1 0 0
0 0 0 0 1 2 3 4 5 5 5 4 4 2 2 2 2 2 1 0 0 0 0 0 0 0 0 0 1 0 0 0 0 0 0 1 1 1 2 2 2 2 1 1
0 0 0 0 0 1 2 3 3 3 3 2 1 1 1 1 1 0 0 0 0 0 0 0 0 0 0 0 0 0 0 0 0 0 1 1 2 2 3 3 3 3 3 2
0 0 0 0 1 1 1 1 1 1 1 1 0 0 0 0 0 0 0 0 0 0 0 0 0 0 0 0 0 0 0 0 0 0 1 2 3 3 3 2 2 2 2 2
0 0 0 1 2 2 1 0 0 0 0 0 0 0 0 0 0 0 0 0 0 0 0 0 0 0 0 0 0 0 0 0 0 0 1 3 3 3 1 1 1 1 1 1
0 0 0 2 3 2 1 0 0 0 0 0 0 0 0 0 0 0 0 0 0 0 0 0 0 0 0 0 0 0 0 0 0 0 1 2 3 2 1 0 0 0 0 0
0 0 1 2 2 1 0 0 0 0 0 0 0 0 0 0 0 0 0 0 0 0 0 0 0 0 0 0 0 0 0 0 0 0 0 1 1 2 1 0 0 0 0 0
0 0 1 1 1 0 0 0 0 0 0 0 0 0 0 0 0 0 0 0 0 0 0 0 0 0 0 0 0 0 0 0 0 0 0 0 0 1 1 0 0 0 0 0
0 0 1 1 0 0 0 0 0 0 0 0 0 0 0 0 0 0 0 0 0 0 0 0 0 0 0 0 0 0 0 0 0 0 0 0 0 0 0 0 0 0 0 0
0 0 0 0 0 0 0 0 0 0 0 0 0 0 0 0 0 0 0 0 0 0 0 0 0 0 0 0 0 0 0 0 0 0 0 0 0 0 0 0 0 0 0 0
0 0 0 0 0 0 0 0 0 0 0 0 0 0 0 0 0 0 0 0 0 0 0 0 0 0 0 0 0 0 0 0 0 0 0 0 0 0 0 0 0 0 0 0
0 0 0 0 0 0 0 0 0 0 0 0 0 0 0 0 0 0 0 0 0 0 0 0 0 0 0 0 0 0 0 0 0 0 0 0 0 0 0 0 0 0 0 0
0 0 0 0 0 0 0 0 0 0 0 0 0 0 0 0 0 0 0 0 0 0 0 0 0 0 0 0 0 0 0 0 0 0 0 0 0 0 0 0 0 0 0 0
0 0 0 0 0 0 0 0 0 0 0 0 0 0 0 0 0 0 0 0 0 0 0 0 0 0 0 0 0 0 0 0 0 0 0 0 0 0 0 0 0 0 0 0
0 0 0 0 0 0 0 0 0 0 0 0 0 0 0 0 0 0 0 0 0 0 0 0 0 0 0 0 0 0 0 0 0 0 0 0 0 0 0 0 0 0 0 0
0 0 0 0 0 0 0 0 0 0 0 0 0 0 0 0 0 0 0 0 0 0 0 0 0 0 0 0 0 0 0 0 0 0 0 0 0 0 0 0 0 0 0 0
0 0 0 0 0 0 0 0 0 0 0 0 0 0 0 0 0 0 0 0 0 0 0 0 0 0 0 0 0 0 0 0 0 0 0 0 0 0 0 0 0 0 0 0
0 0 0 0 0 0 0 0 0 0 0 0 0 0 0 0 0 0 0 0 0 0 0 0 0 0 0 0 0 0 0 0 0 0 0 0 0 0 0 0 0 0 0 0
0 0 0 0 0 0 0 0 0 0 0 0 0 0 0 0 0 0 0 0 0 0 0 0 0 0 0 0 0 0 0 0 0 0 0 0 0 0 0 0 0 0 0 0
0 0 0 0 0 0 0 0 0 0 0 0 0 0 0 0 0 0 0 0 0 0 0 0 0 0 0 0 0 0 0 0 0 0 0 0 0 0 0 0 0 0 0 0
Wind_Speed
2 3 4 3 5 6 5 8 8 7 6 6 5 4 2 2 3 3 3 2 2 2 1 1 2 2 3 2 3 3 4 4 4 5 5 5 5 6 7 7 8 7 7 7
2 1 3 3 2 4 3 4 4 3 4 2 2 4 3 3 4 4 2 1 1 1 1 1 1 2 2 2 3 3 3 3 4 4 5 5 5 5 5 5 5 6 6 6
1 1 3 0 2 3 3 2 5 6 5 3 3 4 3 2 3 3 2 2 1 0 0 1 1 1 2 2 3 3 3 3 4 4 5 6 6 6 5 5 4 5 5 5
3 3 4 5 1 1 4 2 1 3 3 4 5 5 5 3 3 2 2 2 2 1 1 1 1 1 2 3 3 4 3 3 3 4 4 5 5 5 5 4 4 4 4 4
4 3 1 3 1 2 3 1 1 5 6 6 7 6 5 5 4 3 3 2 2 2 1 2 2 2 3 3 3 3 3 3 3 4 5 5 5 5 4 4 4 4 3 3
5 5 6 6 1 1 3 1 2 5 7 6 4 3 1 3 4 5 5 3 3 3 4 3 2 3 4 3 3 2 1 2 2 4 5 5 5 5 4 5 4 4 4 3
4 3 5 3 1 2 4 5 3 5 6 5 3 3 4 4 5 6 6 6 5 6 5 5 4 4 4 4 3 2 3 3 3 4 5 5 5 5 5 5 5 5 4 4
4 4 6 1 1 4 4 1 3 5 6 7 7 8 7 7 6 6 6 7 7 6 6 6 5 5 6 5 4 4 5 6 5 5 5 5 6 6 6 6 6 5 5 4
4 4 1 1 1 1 1 3 3 5 7 9 8 8 7 7 7 7 7 7 6 7 7 7 7 6 7 5 5 7 8 8 8 8 7 7 7 6 6 5 5 5 4 4
1 0 1 2 2 2 3 3 4 7 8 9 10 9 9 8 7 7 7 7 6 8 9 8 7 7 6 5 6 9 10 9 8 9 9 9 7 6 6 5 5 5 5 4
1 1 2 3 3 4 6 8 9 9 8 9 11 10 10 9 7 7 7 7 7 8 8 7 7 8 7 6 8 10 10 9 9 8 9 10 10 8 8 7 5 5 4 4
4 4 3 2 2 5 8 8 9 11 10 9 10 12 11 9 8 8 8 8 8 8 8 7 8 8 7 7 7 9 9 8 7 7 7 7 9 10 16 13 16 14 10 8
2 2 3 4 5 6 8 9 9 11 12 11 10 10 11 10 8 9 9 9 8 8 8 8 9 9 7 7 8 10 9 7 6 6 6 6 6 8 8 10 15 16 14 13
5 5 5 4 6 8 10 12 12 12 11 11 10 10 11 11 10 10 9 8 7 8 8 8 10 9 7 7 9 10 9 9 8 6 6 6 6 6 6 7 7 7 10 13
2 4 7 8 10 10 11 12 13 12 12 11 10 10 11 11 10 9 7 7 9 10 9 9 10 8 6 7 10 10 8 7 7 7 7 7 7 7 7 8 7 6 6 7
6 8 9 10 11 11 11 12 13 11 11 10 10 10 10 11 10 9 8 8 10 9 8 8 8 6 6 8 9 8 8 13 10 7 7 8 7 7 7 7 7 7 6 5
9 9 10 10 10 11 10 11 11 11 11 11 10 10 11 11 11 10 9 9 10 9 8 8 7 6 7 8 9 7 7 9 12 9 8 7 7 7 7 7 7 6 6 6
5 7 9 11 12 12 11 11 11 11 11 11 10 10 10 11 10 8 7 8 10 10 9 7 6 7 8 8 7 7 7 7 7 8 7 7 7 7 7 7 7 7 6 6
9 10 10 10 11 11 11 11 10 10 10 10 11 11 10 9 8 8 8 9 9 8 6 6 8 9 8 8 9 6 7 8 8 8 7 8 8 7 6 6 6 6 5 5
9 10 11 11 11 11 11 10 11 10 9 11 12 11 10 8 8 9 10 9 5 3 2 5 7 7 7 8 10 7 8 8 8 7 7 7 7 6 6 6 6 6 5 5
10 11 11 11 11 10 10 11 11 11 9 10 11 11 9 8 7 7 8 7 4 4 5 7 6 5 6 7 9 7 7 7 7 6 6 6 6 6 6 6 6 5 5 4
8 10 11 12 12 10 9 9 10 11 10 10 10 10 10 9 8 8 7 4 3 5 5 5 5 7 8 8 7 7 7 7 6 6 6 6 6 5 5 5 5 4 4 4
8 9 11 11 12 11 10 9 10 10 10 9 9 9 8 6 5 6 5 2 3 7 6 5 8 11 11 7 6 7 7 7 6 5 5 5 5 5 4 5 4 3 3 3
10 10 11 11 11 12 11 9 9 8 9 8 8 8 8 7 5 4 4 6 7 8 6 7 11 11 9 6 6 6 6 5 5 5 5 4 4 4 4 4 3 3 2 3
10 11 11 11 10 9 10 10 10 10 9 8 8 7 6 5 5 4 5 6 8 8 6 7 10 9 6 5 5 5 4 4 4 4 4 4 3 3 3 3 2 2 2 2
9 8 8 8 8 7 7 7 7 6 7 7 6 5 5 5 6 5 5 6 7 7 5 4 5 6 5 5 5 5 4 4 4 4 4 3 3 3 2 2 2 1 1 1
9 8 7 8 7 6 6 7 7 7 6 7 6 5 5 5 5 5 6 5 5 5 4 4 4 4 4 4 4 4 4 3 3 3 3 2 2 2 2 1 1 1 1 1
Wind_Direction
202 194 155 154 165 166 160 170 174 210 211 235 214 203 187 138 109 90 85 103 117 122 120 119 121 128 130 127 124 139 151 162 172 170 162 157 159 165 168 172 175 177 180 185
44 50 119 96 123 163 160 157 168 155 227 241 131 113 108 104 102 97 87 91 115 105 114 146 158 143 129 127 131 136 150 162 157 154 154 156 158 159 163 166 166 166 179 184
166 319 71 94 238 181 160 167 163 186 211 147 123 118 116 100 97 104 80 52 73 151 177 183 194 165 154 145 136 140 143 142 148 156 160 161 159 156 162 164 159 163 175 176
126 103 184 232 305 143 125 95 135 137 127 130 119 102 76 72 90 74 52 50 42 32 46 59 92 110 126 134 135 141 141 146 151 153 155 152 152 155 155 147 151 155 155 163
120 140 230 271 223 137 138 210 193 143 131 120 120 90 53 44 61 61 43 48 48 48 73 73 79 101 117 114 122 129 144 157 161 158 154 150 155 151 143 136 133 129 125 134
124 140 207 229 207 179 111 278 201 149 145 143 128 121 118 44 55 54 40 39 46 55 68 71 73 87 108 108 108 115 129 131 141 150 154 155 153 141 132 131 132 125 112 105
137 160 247 253 284 121 168 221 159 144 146 138 120 134 119 85 67 59 51 47 48 58 59 52 57 83 90 83 76 70 81 86 92 114 126 130 124 118 121 121 118 112 104 87
142 163 232 306 118 175 203 125 117 124 125 118 112 104 98 88 77 68 60 54 54 63 56 46 52 76 79 65 56 72 79 77 77 84 97 104 108 107 110 115 113 109 103 90
180 197 251 354 279 308 140 127 117 121 124 123 115 108 99 88 79 69 62 56 56 68 63 49 45 64 75 59 63 75 75 72 72 76 75 78 88 93 91 94 99 97 93 84
129 260 44 33 35 44 82 112 112 118 122 120 117 114 105 95 83 72 64 57 59 67 64 51 44 54 62 63 73 80 79 75 74 76 73 68 67 69 76 78 88 92 92 89
146 155 90 44 45 77 86 96 101 98 100 109 114 110 105 98 88 81 73 64 63 67 66 54 50 52 50 58 74 78 76 76 75 77 82 75 68 58 63 54 69 89 87 86
203 193 158 152 95 100 101 102 107 106 96 95 105 107 101 93 86 81 74 67 67 66 65 59 59 55 48 55 76 85 81 75 76 79 82 86 89 76 60 66 64 65 68 79
162 124 124 125 102 100 105 105 104 105 107 105 99 102 101 95 86 81 76 70 68 66 66 66 65 58 48 57 75 83 86 84 81 82 86 88 90 95 88 67 61 59 59 66
127 123 118 114 110 106 107 106 103 99 98 99 100 100 98 93 86 79 74 71 72 70 65 66 66 57 46 65 78 82 84 85 85 82 83 86 86 86 88 90 79 60 51 57
87 115 125 118 110 107 108 109 106 102 99 94 94 97 97 94 88 80 74 74 74 68 61 63 63 51 45 66 77 79 81 82 83 83 81 82 83 83 82 81 80 74 65 53
106 108 117 119 118 118 118 116 114 112 108 103 99 97 97 95 90 80 70 70 75 67 59 61 58 46 54 71 77 75 76 84 85 83 81 79 79 81 81 80 78 71 63 51
131 135 137 135 131 126 125 123 121 119 114 109 107 106 103 97 89 80 73 71 76 69 59 60 55 51 62 72 79 80 81 83 83 81 79 80 81 81 81 80 76 72 61 48
123 131 136 136 133 127 122 118 117 116 116 116 113 107 103 100 98 92 87 83 77 64 48 43 56 65 65 69 76 80 83 82 81 83 82 81 81 81 81 81 79 76 66 55
111 115 116 118 123 123 120 118 118 117 117 115 110 105 100 98 97 94 87 81 76 67 36 38 64 71 71 76 83 81 86 88 85 83 85 85 82 78 78 78 76 73 69 62
109 113 114 114 115 117 117 117 117 116 116 115 110 105 100 96 96 93 85 74 57 55 51 64 69 70 71 80 86 84 87 89 90 87 86 86 85 81 78 77 76 72 66 61
118 121 119 117 114 112 115 119 119 117 115 114 113 111 107 98 93 93 92 81 37 48 69 72 72 74 75 84 84 85 87 88 89 90 90 89 87 83 79 76 72 68 64 59
117 120 119 117 114 110 110 112 115 115 111 109 109 111 108 101 94 84 73 85 85 83 80 74 75 84 89 87 86 88 89 90 89 89 89 90 90 88 83 80 75 70 65 60
110 112 115 116 117 113 106 106 110 114 114 116 118 117 112 107 104 107 97 75 88 88 85 81 89 88 88 84 88 91 92 92 91 91 91 91 91 93 92 87 81 75 69 60
108 109 110 111 111 109 105 103 101 102 104 103 105 112 113 105 81 69 98 101 96 94 88 91 91 88 86 85 89 91 92 94 94 95 94 93 91 90 90 89 85 76 68 60
112 111 113 116 114 112 111 108 102 99 97 93 90 86 86 96 106 105 100 100 99 95 92 91 92 92 89 90 91 92 93 96 102 103 99 97 95 92 88 85 81 73 59 46
107 109 110 110 112 115 117 114 109 107 106 102 92 86 87 88 95 95 93 92 92 94 92 89 91 91 90 90 90 91 92 96 99 100 104 104 102 100 100 96 84 66 48 35
97 98 99 97 96 103 108 110 113 113 113 115 108 101 102 100 97 96 96 93 91 89 89 87 87 90 93 92 90 89 91 92 95 101 108 111 113 116 121 118 100 79 57 36